Location: Praha
(50.0830°N, 14.4670°E)
Time: 01:15:04
(UTC+01:00)

ISS - Pass Details

Date: 23 May 2018
Orbit: 402 x 408 km, 51.6° (Epoch: 15 November)

Event Time Altitude Azimuth Distance (km) Brightness Sun altitude
Rises 02:12:10 0° 287° (WNW) 2,322 0.0 -17.5°
Reaches altitude 10° 02:14:16 10° 285° (WNW) 1,459 -1.1 -17.4°
Maximum altitude 02:17:31 69° 201° (SSW) 433 -4.0 -17.3°
Drops below altitude 10° 02:20:45 10° 118° (ESE) 1,452 -1.1 -17.1°
Sets 02:22:49 0° 116° (ESE) 2,310 0.0 -17.0°
